This is the latest recevied weather packets stored in our database for station/object KC0SIQ-13. If no packets are shown the sender has not sent any weather packets the latest 10 day(s).
| Time | Temp. | Humidity | Pressure | Rain* | Wind** | Luminosity | Snow |
|---|---|---|---|---|---|---|---|
| 1778117754 | 4.44° C | 69% | 1015.5 hPa | 0 mm | - | 10 W/m² | - |
| 1778117451 | 4.44° C | 69% | 1015.4 hPa | 0 mm | - | 12 W/m² | - |
| 1778117149 | 5° C | 69% | 1015.7 hPa | 0 mm | - | 14 W/m² | - |
| 1778116844 | 5° C | 68% | 1015.5 hPa | 0 mm | - | 17 W/m² | - |
| 1778116542 | 5° C | 68% | 1015.6 hPa | 0 mm | - | 19 W/m² | - |
| 1778116238 | 5° C | 68% | 1015.7 hPa | 0 mm | - | 21 W/m² | - |
| 1778115932 | 5° C | 66% | 1015.5 hPa | 0 mm | - | 23 W/m² | - |
| 1778115629 | 5° C | 67% | 1015.3 hPa | 0 mm | - | 27 W/m² | - |
| 1778115327 | 5.56° C | 66% | 1015.6 hPa | 0 mm | - | 30 W/m² | - |
| 1778115023 | 5.56° C | 65% | 1015.3 hPa | 0 mm | - | 32 W/m² | - |
| 1778114720 | 5.56° C | 65% | 1015.4 hPa | 0 mm | - | 35 W/m² | - |
| 1778114418 | 5.56° C | 64% | 1015.5 hPa | 0 mm | - | 37 W/m² | - |
| 1778114113 | 5.56° C | 64% | 1015.7 hPa | 0 mm | - | 39 W/m² | - |
| 1778113808 | 6.11° C | 62% | 1015.3 hPa | 0 mm | - | 39 W/m² | - |
| 1778113505 | 6.11° C | 62% | 1015.7 hPa | 0 mm | - | 42 W/m² | - |
| 1778113201 | 6.11° C | 63% | 1015.7 hPa | 0 mm | - | 43 W/m² | - |
| 1778112898 | 6.67° C | 62% | 1015.6 hPa | 0 mm | - | 45 W/m² | - |
| 1778112595 | 6.67° C | 61% | 1015.6 hPa | 0 mm | - | 96 W/m² | - |
| 1778112290 | 7.22° C | 59% | 1015.7 hPa | 0 mm | - | 91 W/m² | - |
| 1778111986 | 7.78° C | 59% | 1015.6 hPa | 0 mm | - | 170 W/m² | - |
| 1778111684 | 7.22° C | 58% | 1015.9 hPa | 0 mm | - | 193 W/m² | - |
| 1778111380 | 7.78° C | 58% | 1016 hPa | 0 mm | - | 229 W/m² | - |
| 1778111078 | 7.78° C | 57% | 1016.1 hPa | 0 mm | - | 235 W/m² | - |
| 1778110775 | 7.78° C | 59% | 1015.9 hPa | 0 mm | - | 253 W/m² | - |
| 1778110471 | 7.78° C | 56% | 1015.9 hPa | 0 mm | - | 249 W/m² | - |
* Rain latest hour (hover to see other rain measurements)
** Current wind speed in m/s (hover to see current wind gust speed)